TimeMST,TemperatureF,Dew PointF,Humidity,Sea Level PressureIn,VisibilityMPH,Wind Direction,Wind SpeedMPH,Gust SpeedMPH,PrecipitationIn,Events,Conditions,WindDirDegrees,DateUTC
12:56 AM,34.0,26.1,73,30.12,10.0,Calm,Calm,-,N/A,,Clear,0,2013-02-23 07:56:00
1:56 AM,33.1,26.1,75,30.10,10.0,Calm,Calm,-,N/A,,Clear,0,2013-02-23 08:56:00
2:56 AM,32.0,26.1,79,30.08,10.0,South,3.5,-,N/A,,Clear,170,2013-02-23 09:56:00
3:56 AM,30.9,25.0,79,30.07,10.0,South,8.1,-,N/A,,Clear,170,2013-02-23 10:56:00
4:56 AM,32.0,24.1,73,30.07,10.0,SSE,4.6,-,N/A,,Clear,160,2013-02-23 11:56:00
5:56 AM,30.9,23.0,72,30.07,10.0,SSE,8.1,-,N/A,,Clear,160,2013-02-23 12:56:00
6:56 AM,30.9,23.0,72,30.09,10.0,South,6.9,-,N/A,,Clear,180,2013-02-23 13:56:00
7:56 AM,37.0,26.1,65,30.09,10.0,Calm,Calm,-,N/A,,Clear,0,2013-02-23 14:56:00
8:56 AM,39.9,26.1,58,30.08,10.0,Calm,Calm,-,N/A,,Clear,0,2013-02-23 15:56:00
9:56 AM,44.1,25.0,47,30.06,10.0,East,3.5,-,N/A,,Clear,100,2013-02-23 16:56:00
10:56 AM,46.9,23.0,39,30.05,10.0,Variable,3.5,-,N/A,,Clear,0,2013-02-23 17:56:00
11:56 AM,51.1,23.0,33,30.00,10.0,SE,4.6,-,N/A,,Clear,140,2013-02-23 18:56:00
12:56 PM,55.0,24.1,30,29.95,10.0,ENE,5.8,-,N/A,,Clear,60,2013-02-23 19:56:00
1:56 PM,59.0,24.1,26,29.89,10.0,ENE,4.6,-,N/A,,Clear,70,2013-02-23 20:56:00
2:56 PM,63.0,10.9,13,29.84,10.0,WSW,13.8,-,N/A,,Clear,250,2013-02-23 21:56:00
3:56 PM,63.0,16.0,16,29.83,10.0,West,17.3,25.3,N/A,,Clear,280,2013-02-23 22:56:00
4:56 PM,61.0,12.9,15,29.84,10.0,West,20.7,-,N/A,,Clear,270,2013-02-23 23:56:00
5:56 PM,57.0,16.0,20,29.86,10.0,WSW,13.8,-,N/A,,Clear,250,2013-02-24 00:56:00
6:56 PM,54.0,18.0,24,29.86,10.0,SW,9.2,-,N/A,,Clear,220,2013-02-24 01:56:00
7:56 PM,53.1,21.0,29,29.84,10.0,SW,10.4,-,N/A,,Clear,230,2013-02-24 02:56:00
8:56 PM,51.1,19.9,29,29.83,10.0,Variable,6.9,-,N/A,,Clear,0,2013-02-24 03:56:00
9:56 PM,45.0,21.9,40,29.84,10.0,NNW,3.5,-,N/A,,Clear,330,2013-02-24 04:56:00
10:56 PM,44.1,19.9,38,29.83,10.0,Calm,Calm,-,N/A,,Clear,0,2013-02-24 05:56:00
11:56 PM,41.0,19.9,43,29.83,10.0,NNW,6.9,-,N/A,,Clear,330,2013-02-24 06:56:00